This demonstration page uses our WeatherBlox Daily Observations layout. Learn more.

Left ArrowRight Arrow

39.01783, -85.05884

Hourly Observations for February 17, 2021

Temp ( °F °C ) Dew Point ( °F °C ) Humidity (%) Winds ( mph kmh ) Pressure ( in mb ) Visibility ( mi km ) Precip ( " mm )
12:52 am 00:52 Clear 7 -13.9 3 -16.1 84 84 Calm 30.31 1026 10 16 0.00 0.00
1:52 am 01:52 Cloudy 4 -15.6 0 -17.8 83 83 SSW 5 7 30.34 1028 10 16 0.00 0.00
2:52 am 02:52 Cloudy 6 -14.4 2 -16.7 83 83 S 3 6 30.37 1028 10 16 0.00 0.00
3:52 am 03:52 Cloudy 9 -12.8 3 -16.1 77 77 Calm 30.37 1028 10 16 0.00 0.00
4:52 am 04:52 Cloudy 7 -13.9 3 -16.1 84 84 Calm 30.37 1029 10 16 0.00 0.00
5:52 am 05:52 Cloudy 9 -12.8 4 -15.6 80 80 Calm 30.38 1029 10 16 0.00 0.00
6:52 am 06:52 Partly Cloudy 9 -12.8 5 -15 84 84 NNE 5 7 30.35 1028 8 13 0.00 0.00
7:52 am 07:52 Mostly Sunny 11 -11.7 7 -13.9 84 84 NE 9 15 30.35 1028 7 11 0.00 0.00
8:52 am 08:52 Partly Cloudy 12 -11.1 8 -13.3 84 84 ENE 5 7 30.40 1029 7 11 0.00 0.00
9:52 am 09:52 Partly Cloudy 16 -8.9 9 -12.8 74 74 ENE 8 13 30.41 1030 8 13 0.00 0.00
10:52 am 10:52 Mostly Cloudy 18 -7.8 10 -12.2 71 71 E 6 9 30.44 1031 9 14 0.00 0.00
11:52 am 11:52 Mostly Cloudy 20 -6.7 10 -12.2 65 65 E 8 13 30.41 1030 10 16 0.00 0.00
12:52 pm 12:52 Cloudy 21 -6.1 10 -12.2 62 62 E 6 9 30.38 1029 10 16 0.00 0.00
1:52 pm 13:52 Cloudy 22 -5.6 9 -12.8 57 57 ENE 12 19 30.33 1027 10 16 0.00 0.00
2:52 pm 14:52 Cloudy 23 -5 8 -13.3 53 53 ENE 9 15 30.32 1027 10 16 0.00 0.00
3:52 pm 15:52 Cloudy 23 -5 9 -12.8 55 55 ENE 12 19 30.30 1026 10 16 0.00 0.00
4:52 pm 16:52 Cloudy 23 -5 9 -12.8 55 55 NE 12 19 30.31 1026 10 16 0.00 0.00
5:52 pm 17:52 Cloudy 23 -5 9 -12.8 55 55 ENE 14 22 30.29 1026 10 16 0.00 0.00
6:52 pm 18:52 Cloudy 22 -5.6 10 -12.2 60 60 ENE 12 19 30.29 1026 10 16 0.00 0.00
7:52 pm 19:52 Cloudy 21 -6.1 9 -12.8 59 59 ENE 13 20 30.31 1026 10 16 0.00 0.00
8:52 pm 20:52 Cloudy 22 -5.6 10 -12.2 60 60 ENE 12 19 30.32 1027 10 16 0.00 0.00
9:52 pm 21:52 Cloudy with Light Snow 21 -6.1 13 -10.6 71 71 E 12 19 30.31 1027 3 5 0.00 0.00
10:52 pm 22:52 Cloudy with Light Snow 20 -6.7 15 -9.4 81 81 ENE 9 15 30.31 1026 3 5 0.00 0.00
10:55 pm 22:55 Cloudy with Light Snow 20 -6.7 15 -9.4 81 81 ENE 10 17 30.34 1027 2 3 0.00 0.00
11:33 pm 23:33 Cloudy with Light Snow 20 -6.7 16 -8.9 85 85 NE 8 13 30.34 1027 2 3 0.01 0.25
11:52 pm 23:52 Cloudy with Light Snow 20 -6.7 17 -8.3 89 89 ENE 10 17 30.27 1025 2 3 0.01 0.25

Powered by AerisWeather